Location: *
(50.6089°N, 2.2719°E)
Time: 07:15:22
(UTC+00:00)

Meteor 2-10 - Pass Details

Date: 18 October 2019
Orbit: 738 x 869 km, 81.2° (Epoch: 13 November)

Event Time Altitude Azimuth Distance (km) Brightness Sun altitude
Rises 18:32:13 0° 197° (SSW) 3,194 7.4 -16.4°
Reaches altitude 10° 18:34:34 10° 200° (SSW) 2,262 6.6 -16.8°
Maximum altitude 18:39:36 70° 284° (WNW) 792 4.2 -17.6°
Drops below altitude 10° 18:44:39 10° 9° (N) 2,259 6.4 -18.3°
Sets 18:47:00 0° 12° (NNE) 3,190 7.2 -18.7°
